Погода в Умани

Погода в Умани : погода сейчас, прогноз погоды и архив. Всё, что Вы хотите узнать о погоде в Умани!

Хотите узнать прогноз погоды в Умани? Тогда Вам сюда: Погода в Умани

Поиск расширенной информации на нашем сайте:

Другие новости

Новости СМИ2

Главная страница сайта

Новости сайта

03.07.2017

Напоминаем, что на нашем специализированном сайте Метеоцентр.Азия вы можете получить высокодетализированные автоматические прогнозы погоды по пунктам России, СНГ и мира в авиационном формате (включающие направление и скорость ветра, видимость, явления погоды, количество и форму облачности, нижнюю и верхнюю границу облачности).


Погода в Умани - сегодня

Время (UTC), дата Ветер
(°,м/с) 
Видим.   Явления Облачность Т
(°С)
Тd
(°С)
f(%) Тe
(°С)
Pmin
(гПа)
dP
(гПа)
Po
(мм)
O2
(г/м3)
Тmin Tmax R s Состояние
почвы
15 21.09.17 тихо ()   20000 м    8/6 600 м средняя 
[Sc|Ac trans]
+25.7 +17.7 61 +40  1006.5  0.2  737  267           
18 21.09.17 тихо ()   н/о    3/3 1000 м 
[Sc]
+19.3 +17 87 +32  1007.2  0.2  737  273    +28.8       
21 21.09.17 тихо ()   н/о    ясно 
+17.3 +15.6 90 +27  1008.9  1.4  738  276           
00 22.09.17 320 (СЗ) н/о  дымка  10/10 570 м кучево-дожд. 
[Cb calv]
+16.2 +15.1 93 +27  1010.3  1.3  739  278           
03 22.09.17 020 (С) н/о  слаб. ливневой дождь  10/10 540 м кучево-дожд. 
[Cb calv]
+16.3 +15.2 93 +27  1010.6  0.3  739  278           
06 22.09.17 300 (СЗ) 4000 м  дымка{ливн. осадки}  10/10 600 м кучево-дожд. 
[Cb calv]
+18 +16.2 89 +30  1009.5  -0.9  738  276  +15.7    0.0     
09 22.09.17 320 (СЗ) 10 км    10/0 средняя, верхняя 
[Ac trans|Ci fib]
+22.8 +16.6 68 +35  1008.3  -0.7  738  271           
12 22.09.17 290 (З) 10 км    10/3 1000 м средняя, верхняя 
[Cu hum|Ac trans|Ci fib]
+22.7 +17 70 +36  1006.8  -1.5  737  270           
15 22.09.17 130 (ЮВ) 10 км    8/4 1000 м средняя 
[Sc|Ac trans]
+17 +11.9 72 +21  1009.9  2.5  739  278           
18 22.09.17 320 (СЗ) н/о  гроза, ливневой дождь  10/10 300 м кучево-дожд. 
[Cb calv]
+14.9 +13.5 91 +23  1010.7  0.6  739  280    +24.7  13     
21 22.09.17 тихо ()   н/о  слаб. ливневой дождь{гроза}  10/10 600 м кучево-дожд. 
[Cb calv]
+14.2 +12.9 92 +20  1013.4  2.6  741  281           
00 23.09.17 тихо ()   н/о  дымка{гроза, ливн. осадки}  10/10 930 м 
[Sc]
+14.4 +13.1 92 +20  1015.3  1.8  742  281         
03 23.09.17 тихо ()   н/о  дымка  8/8 1110 м 
[Sc]
+12.6 +11.7 94 +16  1016.4  0.9  743  284           
06 23.09.17 130 (ЮВ) 4000 м  дымка  10/10 600 м 
[Sc]
+13.7 +12.4 92 +19  1018.2  1.8  744  283  +12       
09 23.09.17 060 (СВ) 4000 м  дымка  10/10 870 м 
[Sc]
+14.1 +12.8 92 +20  1019.4  1.3  745  283           
12 23.09.17 080 (В) 10 км    10/4 600 м кучево-дожд., средняя 
[Cb calv|As op]
+18.5 +12.6 68 +24  1018.8  -0.3  745  279           
15 23.09.17 080 (В) 4000 м  слаб. ливневой дождь  10/10 600 м кучево-дожд. 
[Cb calv]
+14.4 +13.3 93 +21  1020  0.9  746  283           
18 23.09.17 тихо ()   н/о  слаб. ливневой дождь  10/10 300 м кучево-дожд. 
[Cb calv]
+12.3 +11.5 95 +16  1020.9  0.7  746  286    +18.6     
21 23.09.17 040 (СВ) н/о  дымка{ливн. осадки}  10/10 630 м кучево-дожд. 
[Cb calv]
+11.9 +11.3 96 +15  1020.6  -0.4  746  286           
00 24.09.17 тихо ()   н/о  морось{ливн. осадки}  10/10 420 м 
[St]
+12.6 +11.9 95 +16  1019.8  -0.7  746  285           
03 24.09.17 080 (В) н/о  морось  10/10 330 м 
[St]
+13.1 +12.4 96 +19  1019.3  -0.4  745  284           
06 24.09.17 тихо ()   2000 м  в посл. час ливневой дождь{морось}  10/10 300 м кучево-дожд. 
[Cb calv]
+13.1 +12.5 96 +18  1019.7  0.4  746  284  +11.7       
09 24.09.17 140 (ЮВ) 4000 м  слаб. ливневой дождь{морось}  10/10 540 м кучево-дожд. 
[Cb calv]
+13.9 +13.1 95 +21  1020.6  746  283           
12 24.09.17 110 (В) 10 км  {ливн. осадки}  10/10 960 м кучево-дожд. 
[Cb calv]
+16.1 +14 87 +24  1021.3  0.9  747  281           
15 24.09.17 110 (В) 10 км    8/8 840 м кучево-дожд. 
[Cb calv]
+17.1 +12.8 76 +23  1022  0.7  747  281           
Время (UTC), дата Ветер
(°,м/с) 
Видим.   Явления Облачность Т
(°С)
Тd
(°С)
f(%) Тe
(°С)
Pmin
(гПа)
dP
(гПа)
Po
(мм)
O2
(г/м3)
Тmin Tmax R s Состояние
почвы

Для получения пояснительной информации подведите курсор к названию столбца.

ПОГОДА в Умани - архив

Всё, что Вы хотите узнать о погоде в Умани - удобно и подробно!

Выберите нужную дату (начиная с 1 января 2015* года) и нажмите кнопку "Найти".
Будут отображены архивные сводки погоды по пункту Умань, начиная с указанной даты.


Отображать данные в формате CSV (для использования в таблицах Excel)


Внимание! Наш архив погоды предназначен исключительно для личного некоммерческого использования в познавательных целях. Если Вам необходимы официальные справки о состоянии погоды (для производственных, юридических, коммерческих и т.п. целей), обращайтесь в органы Росгидромета.

*Примечание: данная дата относится к архиву по метеостанциям СССР (Россия, СНГ, Балтия).
Архив по метеостанциям Зарубежной Европы и Азии (кроме Китая) хранится 10 дней, по другим регионам земного шара (Китай, Африка, Америка, Австралия, Океания) - 1 день.

Умань - район местоположения метеостанции


Название, широта, долгота, высота метеостанции:
Умань 48.8°ш. 30.2°д. 216 м над ур. моря [Украина]

Дополнительная информация

В oтличие oт бoльшинства пoгoдных сайтoв мы публикуем пoдрoбную метеoинфoрмацию в детальнoм прoфессиoнальнoм фoрмате.

Характеристики температуры и влажнoсти вoздуха измеряются на высoте 2 м в тени вдали oт зданий и деревьев.
Скoрoсть ветра измеряется на высoте 10 м (на урoвне рoста челoвека скoрoсть ветра ниже в 1.5-2 раза). Если метеoстанция нахoдится в гoрoде или в лесу, тo скoрoсть ветра занижена на 2-4 м/с пo сравнению с oткрытым местoм. Скoрoсть ветра над акватoриями крупных рек и oзёр, а также на вершинах хoлмoв на 2-5 м/с выше, чем в oбычных услoвиях.
Атмoсфернoе давление в разных тoчках местнoсти мoжет значительнo oтличаться oт давления на метеoстанции, в зависимoсти oт услoвий рельефа (при пoдъёме на 10 м давление пoнижается примернo на 1 мм рт.ст.).